Weather History for Reno, NV

Change the Weather History Date:

Monday, December 10, 2012

  Actual Average Record
Temperature  
Mean Temperature 38 °F 36 °F  
Max Temperature 51 °F 46 °F 67 °F (1993)
Min Temperature 25 °F 25 °F -11 °F (1972)
Degree Days  
Heating Degree Days 27 29  
Month to date heating degree days 207 284  
Since 1 July heating degree days 1006 1387  
Cooling Degree Days 0 0  
Month to date cooling degree days 0 0  
Year to date cooling degree days 1272 839  
Moisture  
Dew Point 26 °F    
Average Humidity 63    
Maximum Humidity 85    
Minimum Humidity 41    
Precipitation  
Precipitation 0.00 in 0.03 in 1.13 in (1929)
Month to date precipitation 0.97 0.31  
Year to date precipitation 4.63 6.68  
Snow  
Snow 0.00 in 0.10 in 3.70 in (1914)
Month to date snowfall 0.0 1.1  
Since 1 July snowfall 0.8 4.6  
Snow Depth 0.00 in    
Sea Level Pressure  
Sea Level Pressure 30.34 in    
Wind  
Wind Speed 0 mph (South)    
Max Wind Speed 7 mph    
Max Gust Speed 12 mph    
Visibility 10 miles    
Events      
T = Trace of Precipitation, MM = Missing Value Source: NWS Daily Summary

Daily Weather History Graph

Daily Weather History Graph

Search for Another Location

Airport:

Trip Planner

Search our weather history database for the weather conditions in past years. The results will help you decide how hot, cold, wet, or windy it might be!

Date:

Astronomy

Dec. 10, 2012 Rise Set
Actual Time 7:09 AM PST 4:35 PM PST
Civil Twilight 6:38 AM PST 5:05 PM PST
Nautical Twilight 6:05 AM PST 5:39 PM PST
Astronomical Twilight 5:32 AM PST 6:11 PM PST
Moon 3:58 AM PST (12/10) 2:28 PM PST (12/10)
Length of Visible Light 10h 26m
Length of Day
9h 26m
Waning Crescent, 9% of the Moon is Illuminated
Dec 10
Waning Crescent
Dec 13
New
Dec 19
First Quarter
Dec 28
Full
Jan 4
Last Quarter

Hourly Weather History & Observations

Time (PST) Temp. Windchill Dew Point Humidity Pressure Visibility Wind Dir Wind Speed Gust Speed Precip Events Conditions
12:55 AM 30.0 °F - 25.0 °F 82% 30.38 in 10.0 mi Calm Calm - N/A   Clear
1:55 AM 30.0 °F - 25.0 °F 82% 30.38 in 10.0 mi Calm Calm - N/A   Clear
2:55 AM 28.9 °F - 25.0 °F 85% 30.40 in 10.0 mi Calm Calm - N/A   Clear
3:55 AM 28.0 °F - 24.1 °F 85% 30.38 in 10.0 mi Calm Calm - N/A   Clear
4:55 AM 28.0 °F - 24.1 °F 85% 30.37 in 10.0 mi Calm Calm - N/A   Clear
5:55 AM 28.0 °F - 24.1 °F 85% 30.39 in 10.0 mi Calm Calm - N/A   Clear
6:55 AM 26.1 °F 20.5 °F 21.9 °F 84% 30.42 in 10.0 mi South 4.6 mph - N/A   Clear
7:55 AM 27.0 °F - 23.0 °F 85% 30.41 in 10.0 mi Calm Calm - N/A   Scattered Clouds
8:55 AM 30.9 °F - 26.1 °F 82% 30.42 in 10.0 mi Calm Calm - N/A   Mostly Cloudy
9:55 AM 36.0 °F - 27.0 °F 70% 30.42 in 10.0 mi Calm Calm - N/A   Scattered Clouds
10:55 AM 39.0 °F - 28.0 °F 65% 30.43 in 10.0 mi Calm Calm - N/A   Scattered Clouds
11:55 AM 45.0 °F - 27.0 °F 49% 30.38 in 10.0 mi Calm Calm - N/A   Scattered Clouds
12:55 PM 46.9 °F - 28.0 °F 48% 30.34 in 10.0 mi Calm Calm - N/A   Scattered Clouds
1:55 PM 50.0 °F - 28.9 °F 44% 30.29 in 10.0 mi Calm Calm - N/A   Mostly Cloudy
2:55 PM 51.1 °F - 28.9 °F 43% 30.28 in 10.0 mi Calm Calm - N/A   Mostly Cloudy
3:55 PM 50.0 °F - 28.9 °F 44% 30.27 in 10.0 mi Calm Calm - N/A   Mostly Cloudy
4:55 PM 48.0 °F - 28.0 °F 46% 30.27 in 10.0 mi Calm Calm - N/A   Scattered Clouds
5:55 PM 44.1 °F 42.5 °F 30.0 °F 58% 30.29 in 10.0 mi Variable 3.5 mph - N/A   Partly Cloudy
6:55 PM 42.1 °F - 25.0 °F 51% 30.30 in 10.0 mi Calm Calm - N/A   Partly Cloudy
7:55 PM 39.0 °F - 26.1 °F 60% 30.30 in 10.0 mi Calm Calm - N/A   Scattered Clouds
8:55 PM 36.0 °F - 26.1 °F 67% 30.29 in 10.0 mi Calm Calm - N/A   Partly Cloudy
9:55 PM 36.0 °F - 25.0 °F 64% 30.26 in 10.0 mi Calm Calm - N/A   Clear
10:55 PM 30.9 °F - 25.0 °F 79% 30.27 in 10.0 mi Calm Calm - N/A   Clear
11:55 PM 30.9 °F - 25.0 °F 79% 30.23 in 10.0 mi Calm Calm - N/A   Clear